Home   Weather   Nanjing   Past weeks
Flag for China

Past Weather in Nanjing, Jiangsu, China — Yesterday and Last 2 Weeks

Now
48 °F

Fog.


Feels Like: 48 °F
Forecast: 72 / 45 °F
Wind: 1 mph from North

Location: Nanjing

Current Time: Mar 19, 2019 at 2:12:40 am

Latest Report: Mar 19, 2019 at 1:00 am


Visibility: 2 mi

Pressure: 30.04 "Hg

Humidity: 94%

Dew Point: 46 °F

Location of NanjingLocation

Past Weather in Nanjing — Graph

°F

Nanjing Temperature Yesterday

Maximum temperature yesterday: 63 °F (at 2:00 pm)
Minimum temperature yesterday: 50 °F (at 10:00 pm)
Average temperature yesterday: 57 °F

High & Low Weather Summary for the Past Weeks

 TemperatureHumidityPressure
High72 °F (Mar 16, 3:00 pm)100% (Mar 4, 4:00 am)30.39 "Hg (Mar 4, 4:00 am)
Low34 °F (Mar 4, 6:00 am)14% (Mar 15, 4:00 pm)29.95 "Hg (Mar 5, 4:00 am)
Average52 °F65%30.13 "Hg
* Reported Mar 4 1:00 am — Mar 19 1:00 am, Nanjing. Weather by CustomWeather, © 2019

Note: Actual official high and low records may vary slightly from our data, if they occured in-between our weather recording intervals... More about our weather records

Advertising

Nanjing Weather History for the Previous 24 Hours

Scroll right to see more
 ConditionsComfort  
Time TempWeatherWind HumidityBarometerVisibility
1:00 am
Tue, Mar 19
48 °FFog.1 mph94%30.04 "Hg2 mi
12:00 am50 °FFog.3 mph94%30.04 "Hg3 mi
11:00 pm
Mon, Mar 18
52 °FPassing clouds.1 mph88%30.04 "Hg4 mi
10:00 pm50 °FPassing clouds.3 mph88%30.04 "Hg4 mi
9:00 pm54 °FPassing clouds.3 mph82%30.04 "Hg5 mi
8:00 pm54 °FPassing clouds.3 mph82%30.01 "HgN/A
7:00 pm55 °FPassing clouds.1 mph72%30.01 "HgN/A
6:00 pm57 °FSunny.3 mph67%30.01 "Hg10 mi
5:00 pm59 °FSunny.6 mph59%30.01 "Hg10 mi
4:00 pm59 °FSunny.10 mph55%30.01 "Hg10 mi
3:00 pm61 °FSunny.8 mph52%30.01 "Hg10 mi
2:00 pm63 °FPassing clouds.6 mph56%30.04 "HgN/A
1:00 pm59 °FScattered clouds.3 mph63%30.07 "Hg6 mi
12:00 pm59 °FPassing clouds.8 mph63%30.09 "Hg5 mi
11:00 am59 °FHaze.3 mph72%30.09 "Hg2 mi
10:00 am57 °FHaze.1 mph72%30.09 "Hg2 mi
9:00 am57 °FFog.3 mph77%30.09 "Hg1 mi
8:00 am55 °FLight rain. Fog.3 mph82%30.09 "Hg1 mi
7:00 am54 °FLight rain. Fog.6 mph88%30.09 "Hg1 mi
6:00 am54 °FFog.1 mph88%30.07 "Hg2 mi
5:00 am55 °FLight rain. Fog.1 mph72%30.07 "Hg2 mi
4:00 am55 °FHaze.3 mph72%30.07 "Hg3 mi
3:00 am55 °FHaze.3 mph72%30.07 "Hg3 mi
2:00 am57 °FClear.6 mph63%30.09 "Hg4 mi
Weather by CustomWeather, © 2019

See weather overview